Hourly Data Report for September 27, 2017

All times are specified in Local Standard Time (LST). Add 1 hour to adjust for Daylight Saving Time where and when it is observed.

SUMMERSIDE
PRINCE EDWARD ISLAND

46°26'28.000" N
63°50'17.000" W
12.20 m
8300596
71702
WSD

Download Data

Hourly Data (September 2017)
Hourly Data Report for September 27, 2017
Temp Definition
°C
Dew Point Temp Definition
°C
Rel Hum Definition
%
Wind Dir Definition
10's deg

Wind Spd Definition
km/h
Visibility Definition
km
Stn Press Definition
kPa
Hmdx Definition


Wind Chill Definition


Weather Definition


TIME
00:00 14.5 10.9 79 7 18   101.67     LegendNANA
01:00 14.4 11.1 80 9 19   101.68     LegendNANA
02:00 13.3 11.0 86 10 14   101.64     LegendNANA
03:00 12.2 11.4 95 15 10   101.57     LegendNANA
04:00 11.8 11.1 96 15 11   101.60     LegendNANA
05:00 11.5 10.8 95 12 16   101.55     LegendNANA
06:00 11.5 10.5 93 12 17   101.52     LegendNANA
07:00 11.5 10.1 91 12 17   101.48     LegendNANA
08:00 11.9 10.7 92 11 12   101.42     LegendNANA
09:00 12.3 10.9 91 17 6   101.44     LegendNANA
10:00 13.1 12.3 95 16 14   101.28     LegendNANA
11:00 15.8 14.5 92 17 15   101.12     LegendNANA
12:00 17.3 15.1 87 19 17   101.04     LegendNANA
13:00 18.1 15.8 86 20 14   100.97     LegendNANA
14:00 18.5 16.2 86 20 10   100.88     LegendNANA
15:00 19.8 17.8 89 21 19   100.82     LegendNANA
16:00 20.2 17.9 86 22 31   100.76 26   LegendNANA
17:00 19.8 17.9 89 20 28   100.65     LegendNANA
18:00 19.1 17.7 92 20 24   100.57     LegendNANA
19:00 19.1 17.8 93 19 23   100.57     LegendNANA
20:00 18.8 17.5 92 20 25   100.50     LegendNANA
21:00 18.4 17.5 94 19 28   100.39     LegendNANA
22:00 18.9 17.5 92 20 28   100.34     LegendNANA
23:00 19.0 17.8 93 20 30   100.28     LegendNANA

Notes on Data Quality.

Legend

  • E = Estimated
  • M = Missing
  • NA = Not Available
  • ‡ = Partner data that is not subject to review by the National Climate Archives
Date modified: